Liberal, KS

3:18 PM CST on February 10, 2016 (GMT -0600)
Liberal Municipal

Weather History for KLBL - July, 2013

Change the Weather History Date:

Sunday, July 14, 2013

  Actual Average Record
Temperature  
Mean Temperature 74 °F -  
Max Temperature 84 °F 95 °F 107 °F (1978)
Min Temperature 64 °F 66 °F 52 °F (1990)
Cooling Degree Days 9    
Growing Degree Days 24 (Base 50)    
Moisture  
Dew Point 53 °F    
Average Humidity 50    
Maximum Humidity 77    
Minimum Humidity 32    
Precipitation  
Precipitation 0.00 in - - ()
Sea Level Pressure  
Sea Level Pressure 30.03 in    
Wind  
Wind Speed 11 mph (SE)    
Max Wind Speed 24 mph    
Max Gust Speed 31 mph    
Visibility 10 miles    
Events      
Averages and records for this station are not official NWS values.
T = Trace of Precipitation, MM = Missing Value Source: NWS Daily Summary

Daily Weather History Graph

Daily Weather History Graph

Search for Another Location

Airport or City:

Trip Planner

Search our weather history database for the weather conditions in past years. The results will help you decide how hot, cold, wet, or windy it might be!

Date:

Astronomy

Jul. 14, 2013 Rise Set
Actual Time 6:35 AM CDT 9:03 PM CDT
Civil Twilight 6:05 AM CDT 9:33 PM CDT
Nautical Twilight 5:28 AM CDT 10:10 PM CDT
Astronomical Twilight 4:46 AM CDT 10:51 PM CDT
Moon 12:44 PM CDT (7/14) No Moon Set
Length of Visible Light 15h 28m
Length of Day
14h 28m
Waxing Crescent, 35% of the Moon is Illuminated
Jul 14
Waxing Crescent
Jul 15
First Quarter
Jul 22
Full
Jul 29
Last Quarter
Aug 6
New

Hourly Weather History & Observations

Time (CDT) Temp. Heat Index Dew Point Humidity Pressure Visibility Wind Dir Wind Speed Gust Speed Precip Events Conditions
12:15 AM 78.8 °F - 46.4 °F 32% 29.99 in 10.0 mi South 9.2 mph - N/A   Clear
12:35 AM 78.8 °F - 46.4 °F 32% 29.99 in 10.0 mi South 9.2 mph - N/A   Clear
12:55 AM 75.2 °F - 46.4 °F 36% 29.99 in 10.0 mi South 9.2 mph - N/A   Clear
1:15 AM 75.2 °F - 46.4 °F 36% 29.98 in 10.0 mi SSW 10.4 mph - N/A   Clear
1:35 AM 77.0 °F - 46.4 °F 34% 29.98 in 10.0 mi SSW 9.2 mph - N/A   Clear
1:55 AM 75.2 °F - 46.4 °F 36% 29.97 in 10.0 mi SSW 10.4 mph - N/A   Clear
2:15 AM 75.2 °F - 46.4 °F 36% 29.97 in 10.0 mi SSW 8.1 mph - N/A   Clear
2:35 AM 73.4 °F - 46.4 °F 38% 29.98 in 10.0 mi SSW 8.1 mph - N/A   Clear
2:55 AM 71.6 °F - 46.4 °F 41% 29.98 in 10.0 mi SSE 8.1 mph - N/A   Clear
3:15 AM 71.6 °F - 46.4 °F 41% 29.98 in 10.0 mi SW 6.9 mph - N/A   Clear
3:35 AM 71.6 °F - 48.2 °F 43% 29.98 in 10.0 mi SSW 5.8 mph - N/A   Clear
3:55 AM 69.8 °F - 46.4 °F 43% 29.98 in 10.0 mi SW 5.8 mph - N/A   Clear
4:15 AM 69.8 °F - 48.2 °F 46% 29.97 in 10.0 mi SW 6.9 mph - N/A   Clear
4:35 AM 68.0 °F - 48.2 °F 49% 29.98 in 10.0 mi WNW 8.1 mph - N/A   Clear
4:55 AM 68.0 °F - 48.2 °F 49% 29.97 in 10.0 mi Calm Calm - N/A   Clear
5:15 AM 66.2 °F - 48.2 °F 52% 29.96 in 10.0 mi South 5.8 mph - N/A   Clear
5:35 AM 69.8 °F - 48.2 °F 46% 29.96 in 10.0 mi South 4.6 mph - N/A   Clear
5:55 AM 69.8 °F - 48.2 °F 46% 29.96 in 10.0 mi South 4.6 mph - N/A   Clear
6:15 AM 68.0 °F - 48.2 °F 49% 29.96 in 10.0 mi SSW 4.6 mph - N/A   Clear
6:35 AM 66.2 °F - 48.2 °F 52% 29.96 in 10.0 mi West 3.5 mph - N/A   Clear
6:55 AM 66.2 °F - 50.0 °F 56% 29.95 in 10.0 mi WSW 9.2 mph - N/A   Clear
7:15 AM 68.0 °F - 50.0 °F 52% 29.95 in 10.0 mi WSW 9.2 mph - N/A   Clear
7:35 AM 69.8 °F - 51.8 °F 53% 29.95 in 10.0 mi WNW 9.2 mph - N/A   Clear
7:55 AM 71.6 °F - 53.6 °F 53% 29.96 in 10.0 mi NNW 9.2 mph - N/A   Clear
8:15 AM 75.2 °F - 53.6 °F 47% 29.96 in 10.0 mi North 10.4 mph - N/A   Clear
8:35 AM 77.0 °F - 53.6 °F 44% 29.97 in 10.0 mi ENE 16.1 mph - N/A   Clear
8:55 AM 73.4 °F - 51.8 °F 47% 29.98 in 10.0 mi East 9.2 mph - N/A   Clear
9:15 AM 75.2 °F - 51.8 °F 44% 29.98 in 10.0 mi ESE 10.4 mph - N/A   Clear
9:35 AM 78.8 °F - 55.4 °F 44% 29.99 in 10.0 mi ESE 18.4 mph - N/A   Clear
9:55 AM 78.8 °F - 57.2 °F 47% 29.99 in 10.0 mi ESE 19.6 mph 25.3 mph N/A   Clear
10:15 AM 78.8 °F - 57.2 °F 47% 30.00 in 10.0 mi ESE 17.3 mph 20.7 mph N/A   Partly Cloudy
10:35 AM 78.8 °F - 59.0 °F 51% 30.01 in 10.0 mi ESE 13.8 mph 23.0 mph N/A   Partly Cloudy
10:55 AM 78.8 °F - 57.2 °F 47% 30.02 in 10.0 mi ESE 18.4 mph 23.0 mph N/A   Clear
11:15 AM 78.8 °F - 57.2 °F 47% 30.04 in 10.0 mi East 15.0 mph 21.9 mph N/A   Clear
11:35 AM 78.8 °F - 57.2 °F 47% 30.04 in 10.0 mi East 16.1 mph 19.6 mph N/A   Clear
11:55 AM 78.8 °F - 55.4 °F 44% 30.04 in 10.0 mi ESE 18.4 mph - N/A   Clear
12:15 PM 80.6 °F 80.5 °F 55.4 °F 42% 30.04 in 10.0 mi East 17.3 mph - N/A   Clear
12:35 PM 80.6 °F 80.5 °F 55.4 °F 42% 30.04 in 10.0 mi East 17.3 mph 21.9 mph N/A   Partly Cloudy
12:55 PM 82.4 °F 81.7 °F 55.4 °F 39% 30.04 in 10.0 mi ESE 16.1 mph 23.0 mph N/A   Partly Cloudy
1:15 PM 82.4 °F 81.7 °F 55.4 °F 39% 30.04 in 10.0 mi ESE 17.3 mph - N/A   Partly Cloudy
1:35 PM 82.4 °F 81.7 °F 55.4 °F 39% 30.02 in 10.0 mi ESE 16.1 mph 25.3 mph N/A   Scattered Clouds
1:55 PM 80.6 °F 80.8 °F 57.2 °F 45% 30.03 in 10.0 mi East 11.5 mph - N/A   Mostly Cloudy
2:15 PM 82.4 °F 82.0 °F 57.2 °F 42% 30.04 in 10.0 mi East 10.4 mph 17.3 mph N/A   Mostly Cloudy
2:35 PM 80.6 °F 80.5 °F 55.4 °F 42% 30.03 in 10.0 mi East 21.9 mph 25.3 mph N/A   Partly Cloudy
2:55 PM 82.4 °F 82.0 °F 57.2 °F 42% 30.02 in 10.0 mi East 23.0 mph 31.1 mph N/A   Clear
3:15 PM 84.2 °F 83.5 °F 57.2 °F 40% 30.02 in 10.0 mi East 24.2 mph 28.8 mph N/A   Partly Cloudy
3:35 PM 82.4 °F 82.0 °F 57.2 °F 42% 30.03 in 10.0 mi East 16.1 mph 27.6 mph N/A   Clear
3:55 PM 84.2 °F 83.5 °F 57.2 °F 40% 30.03 in 10.0 mi East 19.6 mph 25.3 mph N/A   Partly Cloudy
4:15 PM 82.4 °F 81.7 °F 55.4 °F 39% 30.02 in 10.0 mi East 19.6 mph 26.5 mph N/A   Mostly Cloudy
4:35 PM 82.4 °F 81.7 °F 55.4 °F 39% 30.03 in 10.0 mi East 23.0 mph 27.6 mph N/A   Scattered Clouds
4:55 PM 80.6 °F 80.5 °F 55.4 °F 42% 30.03 in 10.0 mi East 24.2 mph 29.9 mph N/A   Scattered Clouds
5:15 PM 80.6 °F 80.5 °F 55.4 °F 42% 30.03 in 10.0 mi ESE 24.2 mph 29.9 mph N/A   Partly Cloudy
5:35 PM 78.8 °F - 55.4 °F 44% 30.04 in 10.0 mi East 19.6 mph 26.5 mph N/A   Clear
5:55 PM 75.2 °F - 55.4 °F 50% 30.05 in 10.0 mi East 21.9 mph 27.6 mph N/A   Mostly Cloudy
6:15 PM 73.4 °F - 55.4 °F 53% 30.05 in 10.0 mi East 21.9 mph 29.9 mph N/A   Overcast
6:35 PM 73.4 °F - 55.4 °F 53% 30.06 in 10.0 mi ESE 19.6 mph 27.6 mph N/A   Overcast
6:55 PM 71.6 °F - 55.4 °F 57% 30.07 in 10.0 mi East 20.7 mph 29.9 mph N/A   Mostly Cloudy
7:15 PM 69.8 °F - 55.4 °F 60% 30.08 in 10.0 mi East 19.6 mph 27.6 mph N/A   Scattered Clouds
7:35 PM 69.8 °F - 57.2 °F 64% 30.09 in 10.0 mi East 18.4 mph 24.2 mph N/A   Scattered Clouds
7:55 PM 68.0 °F - 57.2 °F 68% 30.10 in 10.0 mi East 18.4 mph 26.5 mph N/A   Mostly Cloudy
8:15 PM 68.0 °F - 57.2 °F 68% 30.11 in 10.0 mi ENE 19.6 mph 23.0 mph N/A   Overcast
8:35 PM 66.2 °F - 55.4 °F 68% 30.12 in 10.0 mi ENE 16.1 mph - N/A   Overcast
8:55 PM 66.2 °F - 57.2 °F 73% 30.13 in 10.0 mi East 15.0 mph - N/A   Overcast
9:15 PM 66.2 °F - 57.2 °F 73% 30.14 in 10.0 mi East 11.5 mph - N/A   Overcast
9:35 PM 66.2 °F - 57.2 °F 73% 30.14 in 10.0 mi East 10.4 mph - N/A   Overcast
9:55 PM 66.2 °F - 57.2 °F 73% 30.12 in 10.0 mi SE 11.5 mph - N/A   Overcast
10:15 PM 66.2 °F - 57.2 °F 73% 30.14 in 10.0 mi South 8.1 mph - N/A   Overcast
10:35 PM 66.2 °F - 57.2 °F 73% 30.15 in 10.0 mi South 9.2 mph - N/A   Overcast
10:55 PM 66.2 °F - 57.2 °F 73% 30.16 in 10.0 mi SSW 8.1 mph - N/A   Overcast
11:15 PM 66.2 °F - 57.2 °F 73% 30.17 in 10.0 mi South 4.6 mph - N/A   Overcast
11:35 PM 64.4 °F - 57.2 °F 77% 30.18 in 10.0 mi SSE 3.5 mph - N/A   Overcast
11:55 PM 64.4 °F - 57.2 °F 77% 30.18 in 10.0 mi SE 3.5 mph - N/A   Overcast